Showing default

SKY MUSTER, 40940

Orbit data source: Space-Track

SKY MUSTER, 40940 is a payload satellite owned by NBN (AU) in GEO that was launched on Wed, 30 Sep 2015 UTC via an ARIANE 5ECA launch vehicle from the French Guiana (FRGUI). Payload-class satellites include a variety of spacecraft equipped with specific instruments for various scientific and technological missions. These include communications satellites like Starlink; space stations such as the ISS; scientific satellites like the Hubble; Earth observation satellites from companies like Planet Labs, Umbra, and HawkEye 360; GPS; miniature CubeSats for education and research; and military/defense satellites.

Not visible in the next 10 days
Identifier
40940, 2015-054A
Orbit
GEO
Country
Flag of AUAU / AUS
Related business
Manufacturer
SS/Loral (MDA)
Mission
Operational Commercial Communications
Bus & Motor
SSL-1300, R-4D?
Mass
6,440 kg wet, ~3,500 kg dry
Launch date (UTC)
2015-09-30 (10 years ago)
Launch vehicle
ARIANE 5ECA
Launch site
French Guiana (FRGUI)
Object type
Payload
Rocket body
Debris
Shape & HBR
Box + 2 Pan, 13.0 m
Radar Cross Section
48.493 m², Large (>1 m²)

Expand to show TLE details & history
Last TLE update: 16 hours ago

TLE from 16 hours ago
0 SKY MUSTER
1 40940U 15054A   26061.97242324  .00000000  00000-0  00000+0 0  9999
2 40940   0.0181 167.9467 0001863 171.7608 311.3553  1.00268471 38198
Epoch: 2026-03-02T23:20Z
TLE epoch observation values (Epoch: 2026-03-02T23:20:17.367Z)
Latitude
0.0311°
Longitude
140.25232°
Altitude
35,781.786 km
Speed
3.075 km/s
True Right ascension
19h 24m 19s
True Declination
0° 01' 52"
Sunlit
Object was in daylight at epoch
Visualization orbit readout
Latitude
Unknown
Longitude
Unknown
Altitude
Unknown
Speed
Unknown
Apparent Right ascension
Unknown
Apparent Declination
Unknown
Sunlit
N/A
Visualization observer readout
Local Sidereal Time
19:00:18
Azimuth
Unknown
Elevation
Unknown
Doppler factor
Unknown
Orbital elements
Apogee altitude
35,796.45 km
Perigee altitude
35,780.739 km
Semi-major axis
42,166.731 km
Eccentricity
0.00019
Inclination
0.0181°
RAAN
167.9467°
Arg. of periapsis
171.7608°
True anomaly
311.33927°
Mean anomaly
311.3553°
Eccentric anomaly
311.34729°
Mean motion
0.25066 °/min
Orbital period
1,436.2 mins
BSTAR
0
Loading maneuver chart data...
Computing Atmospheric mass density...
Loading historical data...
Loading historical data...
Loading historical data...
Loading historical data...
Loading historical data...
Loading historical data...
Loading historical data...
Other satellites on launch #54 in the year 2015 (2015-09-30 UTC)

Documentation

Showing up to 5 results
|